Regional Weather Roundup
Issued by NWS

Home | Current Version | Previous Version | Graphics & Text | Print | Product List | Glossary Off
Versions: 1 2 3 4 5 6 7 8 9 10 11 12 13 14 15 16 17 18 19 20 21 22 23 24 25 26 27 28 29 30 31 32 33 34 35 36 37 38 39 40 41 42 43 44 45 46 47 48 49 50

000
ASUS43 KMKX 272221
RWRWI

WISCONSIN REGIONAL WEATHER ROUNDUP
NATIONAL WEATHER SERVICE MILWAUKEE/SULLIVAN WI
400 PM CST TUE JAN 27 2015

NOTE: "FAIR" INDICATES FEW OR NO CLOUDS BELOW 12,000 FEET WITH NO
SIGNIFICANT WEATHER AND/OR OBSTRUCTIONS TO VISIBILITY.

WIZ001-002-006>008-014>016-023>028-272300-
NORTHWEST WISCONSIN

CITY           SKY/WX    TMP DP  RH WIND       PRES   REMARKS
SUPERIOR ARPT  CLOUDY    30  24  78 S8        30.16S WCI  23
ASHLAND        CLOUDY    30  21  69 SW5       30.18R WCI  25
HAYWARD        CLOUDY    27  21  78 S6        30.15S WCI  20
SIREN          CLOUDY    30  24  77 S7        30.15S WCI  23
CUMBERLAND     CLOUDY    28  23  80 S6        30.15F WCI  22
RICE LAKE      CLOUDY    29  23  77 SE6       30.17F WCI  23
CHETEK         CLOUDY    29  22  76 SE6       30.17S WCI  23
LADYSMITH      CLOUDY    28  22  78 SE3       30.19R
EAU CLAIRE     CLOUDY    29  20  69 SE7       30.18S WCI  22
MENOMONIE      CLOUDY    31  22  68 E6        30.18F WCI  25
NEW RICHMOND   CLOUDY    30  24  76 S8        30.16S WCI  23
OSCEOLA        CLOUDY    32  26  78 SE6       30.18S WCI  26
$$

WIZ003>005-009-010-017-018-272300-
NORTH CENTRAL WISCONSIN

CITY           SKY/WX    TMP DP  RH WIND       PRES   REMARKS
MANITOWISH WTR CLOUDY    23  19  85 S7        30.14S WCI  15
ARBOR VITAE    CLOUDY    25  20  80 S3        30.15R
WOODRUFF       CLOUDY    25  20  80 S3        30.15R
RHINELANDER    CLOUDY    23  17  78 S3        30.16R
EAGLE RIVER    CLOUDY    24  17  75 S3        30.14S
LAND O LAKES   CLOUDY    24  19  80 S3        30.15S
PHILLIPS       CLOUDY    24  19  81 SW5       30.15S WCI  19
TOMAHAWK       CLOUDY    24  19  81 CALM      30.17R
MEDFORD        CLOUDY    25  19  80 SE3       30.16S
MERRILL        CLOUDY    25  19  77 S5        30.18R WCI  19
$$

WIZ029-030-035-036-043>047-272300-
CENTRAL WISCONSIN

CITY           SKY/WX    TMP DP  RH WIND       PRES   REMARKS
WAUSAU         CLOUDY    24  20  84 CALM      30.17F
MOSINEE        CLOUDY    25  23  93 CALM      30.19
MARSHFIELD     CLOUDY    26  21  81 SE5       30.18S HAZE    WCI  20
STEVENS POINT  FLURRIES  23  19  85 E3        30.20F
WAUPACA        CLOUDY    29  18  65 CALM      30.23S
WAUTOMA        CLOUDY    26  20  78 CALM      30.23S
WISC RAPIDS    CLOUDY    26  21  81 SE3       30.22R
CAMP DOUGLAS   CLOUDY    27  27 100 E5        30.20S WCI  21
$$

WIZ011>013-019>022-031-037>040-048>050-272300-
NORTHEAST WISCONSIN

CITY           SKY/WX    TMP DP  RH WIND       PRES   REMARKS
ANTIGO         FLURRIES  22  19  88 CALM      30.17S
SHAWANO        CLOUDY    28  17  62 CALM      30.23F
OCONTO         CLEAR     21  16  80 CALM      30.25R
STURGEON BAY   CLOUDY    23  16  74 N5        30.25S WCI  17
GREEN BAY      CLOUDY    26  17  68 NE3       30.24R
MANITOWOC      CLOUDY    27  19  72 N3        30.24R
APPLETON       CLOUDY    27  16  63 VRB3      30.23R
CLINTONVILLE   CLOUDY    27  18  69 CALM      30.23S
OSHKOSH        CLOUDY    27  16  63 NE5       30.22S WCI  22
$$

WIZ032>034-041-042-053>061-272300-
SOUTHWEST WISCONSIN

CITY           SKY/WX    TMP DP  RH WIND       PRES   REMARKS
LA CROSSE      CLOUDY    31  21  66 E5        30.21R WCI  26
SPARTA         CLOUDY    28  21  75 CALM      30.22S
VIROQUA        CLOUDY    27  22  83 E3        30.18R
BOSCOBEL       CLOUDY    30  21  69 VRB3      30.22S
PRAIRIE DU CHI CLOUDY    30  22  71 E7        30.22R WCI  23
PLATTEVILLE    CLOUDY    28  23  81 NE5       30.20S WCI  23
$$

WIZ056-057-062-063-064-067-068-272300-
SOUTH CENTRAL WISCONSIN

CITY           SKY/WX    TMP DP  RH WIND       PRES   REMARKS
REEDSBURG      CLOUDY    27  24  90 CALM      30.21S FOG
BARABOO/DELLS  CLOUDY    27  24  90 CALM      30.21S FOG
LONE ROCK      CLOUDY    29  23  78 SE3       30.21F
MINERAL POINT  CLOUDY    30  23  74 NE3       30.19R
MADISON        FLURRIES  28  22  78 NE6       30.21S WCI  22
MIDDLETON      CLOUDY    29  27  91 CALM      30.21S
WATERTOWN      CLOUDY    28  19  67 CALM      30.21R
MONROE         CLOUDY    28  28 100 CALM      30.19S FOG
JANESVILLE     CLOUDY    30  25  80 CALM      30.21R
$$

WIZ051-052-058>065-066-070>072-272300-
SOUTHEAST WISCONSIN

CITY           SKY/WX    TMP DP  RH WIND       PRES   REMARKS
MILWAUKEE      PTCLDY    28  16  60 NE10      30.22S WCI  19
WAUKESHA       CLOUDY    27  16  63 E6        30.21R WCI  20
MILWAUKEE/TIMM MOCLDY    28  16  59 NE5       30.22S WCI  23
RACINE         CLEAR     28  16  60 N9        30.23S WCI  19
BURLINGTON     MOCLDY    27  16  62 E5        30.21R WCI  22
KENOSHA        PTCLDY    29  18  63 NE9       30.21R WCI  20
FOND DU LAC    CLOUDY    28  17  63 N6        30.22R WCI  22
SHEBOYGAN      CLOUDY    27  18  69 NE5       30.22S WCI  22
WEST BEND      CLOUDY    28  18  64 NE5       30.21S WCI  23
JUNEAU         CLOUDY    27  19  70 W5        30.22S WCI  22
$$

LSZ147-162-272300-
LAKE SUPERIOR

STATION/POSITION TIME  TEMP    WIND        PRES    WAVE
                       AIR SEA DIR/SP/G            HT/PER
                 (UTC) (F)     (DEG/KT/KT) (MB)    (FT/S)
DEVILS ISLAND    2200   29     220/  3/  4 1022.8R
PORT WING        2140   30      CALM  /  1 1021.7S
SAXON HARBOR     2100   30        CALM     1022.0R
$$

LMZ867-665-643>646-272300-
LAKE MICHIGAN

STATION/POSITION TIME  TEMP    WIND        PRES    WAVE
                       AIR SEA DIR/SP/G            HT/PER
                 (UTC) (F)     (DEG/KT/KT) (MB)    (FT/S)
NORTHPORT PIER   2100   25      50/  2/  2 1023.7R
SISTER BAY       2113   30     360/  9/ 10   N/A
KEWAUNEE LAKESHO 2100   26      30/  2/  4 1022.6R
SHEBOYGAN LAKESH 2200   26      10/  7/  9 1025.0R
PORT WASHINGTON  2140   28      60/  4/  8 1024.4R
MILWAUKEE LAKESH 2200   27      40/  9/ 10   N/A
KENOSHA   LAKESH 2200   27      20/ 10/ 12 1023.4R
$$

TC  - TEMPERATURE IN CELSIUS
VSB - VISIBILITY IN STATUTE MILES
WCI - WIND CHILL INDEX
HX  - HEAT INDEX




USA.gov is the U.S. government's official web portal to all federal, state and local government web resources and services.